STARLINK-1529 (46067 NORAD) Tracking and Keplerian Element Data

This shows tracking and keplerian element data for the satellite.

Feedback or suggestion? Click here.




ElementValue
Catalog46067
NameSTARLINK-1529
Epoch Orbit1934
Epoch Day336.81569486
Epoch Year2020
RAAN93.2937
Inclination52.9884
Eccentricity0.0001321
Argument of Perigee71.2517
Mean Anonmoly288.8615
Mean Motion15.05582922
Decay Rate-1.062E-05
L11 46067U 20055AS 20336.81569486 -.00001062 00000-0 -53699-4 0 9993
L22 46067 52.9884 93.2937 0001321 71.2517 288.8615 15.05582922 19348

Live tracking and technical data element details for STARLINK-1529 (NORAD 46067). STARLINK-1529 can be tracked NOW for your location showing map with azimuth and elevation plus other details from your city location.

Track the satellite on the map from your city or location and see movement details for azimuth, elevation, latitude, longitude, range, height, and movement on the map or in text.







IsCatalogInMostPopularTable: catalog: 46067, numindb: 28
Update: records affected: 1



GetName: 46067 STARLINK-1529

Hit Count: updated at: Wed, 02 Dec 2020 19:09:44 GMT